Hourly Weather Roundup
Issued by NWS Central Illinois

Home | Current Version | Previous Version | Text Only | Print | Product List | Glossary On
Versions: 1 2 3 4 5 6 7 8 9 10 11 12 13 14 15 16 17 18 19 20 21 22 23 24 25 26 27 28 29 30 31 32 33 34 35 36 37 38 39 40 41 42 43 44 45 46 47 48 49 50
000
NZUS43 KILX 280010
HWRILX

AREA WEATHER ROUNDUP
NATIONAL WEATHER SERVICE, LINCOLN IL
600 PM CST TUE JAN 27 2015


CITY           SKY/WX    TMP DP  RH WIND       PRES   REMARKS
BLOOMINGTON    CLOUDY    31  26  81 NW6       30.23S WCI  25
6HR MIN TEMP:  30; 6HR MAX TEMP:  34;

CHAMPAIGN      PTCLDY    26  22  84 N6        30.23R WCI  19
6HR MIN TEMP:  27; 6HR MAX TEMP:  32;

DECATUR        CLOUDY    30  25  81 NE6       30.24R WCI  24
6HR MIN TEMP:  30; 6HR MAX TEMP:  34;

FLORA          CLOUDY    33  29  87 N3        30.24R
6HR MIN TEMP:  33; 6HR MAX TEMP:  36;

GALESBURG      CLOUDY    27  24  88 NE5       30.23S WCI  22
JACKSONVILLE   CLOUDY    33  28  85 NE6       30.23S WCI  27
6HR MIN TEMP:  32; 6HR MAX TEMP:  37;

LACON          CLOUDY    30  24  78 CALM      30.24S
6HR MIN TEMP:  30; 6HR MAX TEMP:  30;

LAWRENCEVILLE  CLOUDY    32  29  88 N7        30.23R WCI  26
6HR MIN TEMP:  32; 6HR MAX TEMP:  33;

LITCHFIELD     MOCLDY    31  26  81 NE8       30.22S WCI  24
$$


CITY           SKY/WX    TMP DP  RH WIND       PRES   REMARKS
LINCOLN        CLOUDY    33  27  80 CALM      30.24F
6HR MIN TEMP:  33; 6HR MAX TEMP:  34; 6HR PCP:  0.01;

MACOMB         CLOUDY    30  27  90 NE6       30.25S WCI  24
MATTOON        MOCLDY    30  24  78 N7        30.22R WCI  23
6HR MIN TEMP:  30; 6HR MAX TEMP:  32;

MT CARMEL AP   CLOUDY    34  30  86 N7        30.22R WCI  28
OLNEY-NOBLE AP CLOUDY    32  28  86 CALM      30.24R
PARIS          CLEAR     27  22  80 CALM      30.24R
6HR MIN TEMP:  27; 6HR MAX TEMP:  31;

PEORIA         CLOUDY    31  24  75 CALM      30.24S
6HR MIN TEMP:  31; 6HR MAX TEMP:  33;

PONTIAC        CLOUDY    32  28  87 N5        30.24S WCI  27
RANTOUL        CLEAR     29  22  78 N5        30.23R WCI  23
6HR MIN TEMP:  29; 6HR MAX TEMP:  32;

ROBINSON       CLOUDY    32  29  88 N5        30.23R WCI  27
6HR MIN TEMP:  32; 6HR MAX TEMP:  32;

SPRINGFIELD    CLOUDY    32  26  78 NE3       30.24R
6HR MIN TEMP:  32; 6HR MAX TEMP:  34;

TAYLORVILLE    CLOUDY    32  28  86 N5        30.24R WCI  27
$$

...REGIONAL REPORTS...


CITY           SKY/WX    TMP DP  RH WIND       PRES   REMARKS
CHICAGO O`HARE PTCLDY    26  15  63 NE8       30.23R WCI  18
KANKAKEE       CLEAR     26  19  73 NE5       30.24R WCI  20
MOLINE         CLOUDY    28  22  78 E7        30.24S WCI  21
MOUNT VERNON   PTCLDY    34  25  69 N3        30.23R
PITTSFIELD     CLEAR     32  28  86 E6        30.23R WCI  27
QUINCY         CLEAR     32  27  81 E7        30.20R WCI  26
ROCKFORD       CLOUDY    29  24  82 CALM      30.25R
$$


CITY           SKY/WX    TMP DP  RH WIND       PRES   REMARKS
BURLINGTON     CLOUDY    30  25  81 NE7       30.21S WCI  23
CEDAR RAPIDS   CLOUDY    30  25  81 E6        30.18F WCI  24
DES MOINES     PTCLDY    39  30  70 E12       30.15R WCI  32
KIRKSVILLE     CLEAR     39  32  76 E5        30.17R
OTTUMWA        CLEAR     32  28  85 E8        30.18S WCI  25
ST LOUIS       PTCLDY    37  29  72 NE12      30.21R WCI  29
$$


CITY           SKY/WX    TMP DP  RH WIND       PRES   REMARKS
TERRE HAUTE    PTCLDY    28  24  85 N3        30.22R
EVANSVILLE     CLOUDY    35  29  78 N3        30.23R
INDIANAPOLIS   CLEAR     23  12  62 N8        30.19R WCI  14
LAFAYETTE      CLEAR     24  14  65 W3        30.22R
MADISON        CLOUDY    27  22  81 CALM      30.22R
MILWAUKEE      MOCLDY    27  16  63 NE7       30.24S WCI  19
$$





USA.gov is the U.S. government's official web portal to all federal, state and local government web resources and services.